This demonstration page uses our WeatherBlox Daily Observations layout. Learn more.

Left ArrowRight Arrow

39.08367, -84.50855

Hourly Observations for January 14, 2021

Temp ( °F °C ) Dew Point ( °F °C ) Humidity (%) Winds ( mph kmh ) Pressure ( in mb ) Visibility ( mi km ) Precip ( " mm )
12:53 am 00:53 Clear 37 2.8 27 -2.8 67 67 VRB 3 6 29.86 1011 10 16.0934 0 0
1:53 am 01:53 Clear 32 0 27 -2.8 82 82 W 3 6 29.85 1011 10 16.0934 0 0
2:53 am 02:53 Clear 31 -0.6 26 -3.3 82 82 Calm 29.85 1011 10 16.0934 0 0
3:53 am 03:53 Clear 31 -0.6 27 -2.8 85 85 WSW 5 7 29.84 1010 10 16.0934 0 0
4:53 am 04:53 Clear 31 -0.6 26 -3.3 82 82 WSW 3 6 29.83 1010 10 16.0934 0 0
5:53 am 05:53 Clear 29 -1.7 25 -3.9 85 85 WSW 3 6 29.84 1011 10 16.0934 0 0
6:53 am 06:53 Clear 28 -2.2 25 -3.9 88 88 Calm 29.83 1010 10 16.0934 0 0
7:53 am 07:53 Clear 29 -1.7 26 -3.3 89 89 WSW 5 7 29.83 1010 10 16.0934 0 0
8:53 am 08:53 Sunny 31 -0.6 27 -2.8 85 85 SSW 3 6 29.83 1010 10 16.0934 0 0
9:53 am 09:53 Sunny 36 2.2 30 -1.1 79 79 S 8 13 29.84 1011 10 16.0934 0 0
10:53 am 10:53 Sunny 40 4.4 31 -0.6 70 70 S 8 13 29.82 1010 10 16.0934 0 0
11:53 am 11:53 Sunny 44 6.7 32 0 63 63 S 10 17 29.77 1008 10 16.0934 0 0
1:53 pm 13:53 Sunny 49 9.4 33 0.6 55 55 S 8 13 29.68 1005 10 16.0934 0 0
2:53 pm 14:53 Sunny 48 8.9 33 0.6 56 56 S 8 13 29.67 1005 10 16.0934 0 0
3:53 pm 15:53 Sunny 50 10 33 0.6 52 52 S 8 13 29.65 1004 10 16.0934 0 0
4:53 pm 16:53 Sunny 50 10 33 0.6 52 52 SSE 10 17 29.65 1004 10 16.0934 0 0
5:53 pm 17:53 Mostly Clear 48 8.9 32 0 54 54 SSE 5 7 29.64 1004 10 16.0934 0 0
6:53 pm 18:53 Clear 46 7.8 32 0 58 58 VRB 3 6 29.63 1003 10 16.0934 0 0
7:53 pm 19:53 Clear 41 5 31 -0.6 67 67 SSW 5 7 29.65 1004 10 16.0934 0 0
8:53 pm 20:53 Clear 43 6.1 31 -0.6 63 63 SSW 6 9 29.64 1004 10 16.0934 0 0
9:53 pm 21:53 Cloudy 47 8.3 32 0 56 56 S 8 13 29.63 1003 10 16.0934 0 0
10:53 pm 22:53 Cloudy 47 8.3 32 0 56 56 S 12 19 29.62 1003 10 16.0934 0 0
11:53 pm 23:53 Cloudy 47 8.3 32 0 56 56 S 13 20 29.61 1003 10 16.0934 0 0

Powered by AerisWeather